GW3011 Weather Reports


time (UTC)temp
C
wind
direction
speed
KPH
gust
KPH
rain 1hr
cm
rain 24hr
cm
rain mn
cm
humidity
%
barometer
mb
20260903112143 20 140 0.0 0.0 0.00 0.48 0.48 99 1014.6
20260903111642 20 133 0.0 0.0 0.00 0.48 0.48 99 1014.7
20260903111138 20 150 0.0 0.0 0.00 0.48 0.48 99 1014.6
20260903110634 20 120 0.0 0.0 0.00 0.48 0.48 99 1014.7
20260903110130 20 157 0.0 0.0 0.00 0.48 0.48 99 1014.7
20260903105624 20 112 0.0 0.0 0.00 0.48 0.48 99 1014.8
20260903105114 20 160 0.0 0.0 0.00 0.48 0.48 99 1014.8
20260903104613 20 130 0.0 0.0 0.00 0.48 0.48 99 1014.5
20260903104103 20 97 0.0 0.0 0.00 0.48 0.48 99 1014.7
20260903103559 20 71 0.0 0.0 0.00 0.48 0.48 99 1014.7
20260903103055 20 92 0.0 0.0 0.00 0.48 0.48 99 1014.8
20260903102550 20 132 0.0 0.0 0.00 0.48 0.48 99 1014.7
20260903102049 20 153 0.0 0.0 0.00 0.48 0.48 99 1014.6
20260903101544 20 137 0.0 0.0 0.00 0.48 0.48 99 1014.7
20260903101040 20 70 0.0 0.0 0.00 0.48 0.48 99 1014.7
20260903100539 20 101 0.0 0.0 0.00 0.48 0.48 99 1014.9
20260903100038 20 145 0.0 0.0 0.00 0.48 0.48 99 1015.0
20260903095536 20 119 0.0 0.0 0.00 0.48 0.48 99 1014.7
20260903095031 20 63 0.0 0.0 0.00 0.48 0.48 99 1014.7
20260903094526 20 171 0.0 0.0 0.00 0.48 0.48 99 1014.6
20260903094022 20 101 0.0 0.0 0.00 0.48 0.48 99 1014.4
20260903093522 20 164 0.0 0.0 0.00 0.48 0.48 99 1014.3
20260903093017 20 178 0.0 0.0 0.00 0.48 0.48 99 1014.6
20260903092516 20 97 0.0 0.0 0.00 0.48 0.48 99 1014.5
20260903092011 20 87 0.0 0.0 0.00 0.48 0.48 99 1014.4
20260903091509 20 120 0.0 0.0 0.00 0.48 0.48 99 1014.2
20260903091003 20 111 0.0 0.0 0.00 0.48 0.48 99 1014.0
20260903090459 20 109 0.0 0.0 0.00 0.48 0.48 99 1014.3
20260903085957 20 169 0.0 0.0 0.00 0.48 0.48 99 1014.4
20260903085456 20 118 0.0 0.0 0.00 0.48 0.48 99 1014.1
20260903084952 20 127 0.0 0.0 0.00 0.48 0.48 99 1014.1
20260903084449 20 103 0.0 0.0 0.00 0.48 0.48 99 1013.7
20260903083944 20 63 0.0 0.0 0.00 0.48 0.48 99 1014.7
20260903083441 20 125 0.0 0.0 0.13 0.48 0.48 99 1015.2
20260903082940 20 64 0.0 0.0 0.13 0.48 0.48 99 1015.5
20260903082435 20 95 0.0 0.0 0.00 0.46 0.46 99 1015.5
20260903081931 20 79 0.0 0.0 0.00 0.46 0.46 99 1015.6
20260903081426 20 155 0.0 0.0 0.00 0.46 0.46 99 1015.5
20260903080922 20 105 0.0 0.0 0.00 0.46 0.46 99 1015.5
20260903080418 20 93 0.0 0.0 0.00 0.46 0.46 99 1015.6
20260903075913 20 141 0.0 0.0 0.00 0.46 0.46 99 1015.3
20260903075409 20 79 0.0 0.0 0.00 0.46 0.46 99 1015.0
20260903074903 20 102 0.0 0.0 0.00 0.46 0.46 99 1015.0
20260903074357 20 96 0.0 0.0 0.00 0.46 0.46 99 1014.8
20260903073852 20 100 0.0 0.0 0.18 0.46 0.46 99 1015.0
20260903073346 20 173 0.0 0.0 0.18 0.46 0.46 99 1015.1
20260903072843 20 88 0.0 0.0 0.13 0.43 0.43 99 1015.0
20260903072339 20 103 0.0 0.0 0.30 0.43 0.43 99 1015.2
20260903071835 20 173 0.0 0.0 0.30 0.41 0.41 99 1015.2
20260903071331 20 110 0.0 0.0 0.30 0.38 0.38 99 1015.4
20260903070826 20 95 0.0 0.0 0.30 0.36 0.36 99 1015.8
20260903070322 20 85 0.0 0.0 0.30 0.33 0.33 99 1015.9
20260903065821 20 111 0.0 0.0 0.30 0.30 0.30 99 1016.2
20260903065315 20 123 0.0 0.0 0.30 0.28 0.28 99 1016.4
20260903064814 20 99 0.0 0.0 0.18 0.25 0.25 99 1016.1
20260903064310 20 84 0.0 0.0 0.00 0.23 0.23 99 1016.2
20260903063806 20 120 0.0 0.0 0.13 0.23 0.23 99 1016.0
20260903063300 20 90 0.0 0.0 0.13 0.23 0.23 99 1016.0
20260903062751 20 107 0.0 0.0 0.00 0.20 0.20 99 1015.9
20260903062250 20 123 0.0 0.0 0.00 0.20 0.20 99 1015.7
20260903061747 20 119 0.0 0.0 0.00 0.20 0.20 99 1015.9
20260903061245 20 117 0.0 0.0 0.00 0.20 0.20 99 1015.9
20260903060741 20 135 0.0 0.0 0.00 0.20 0.20 99 1015.8
20260903060241 20 93 0.0 0.0 0.00 0.20 0.20 99 1015.8
20260903055738 20 74 0.0 0.0 0.18 0.20 0.20 99 1015.9
20260903055237 20 117 0.0 0.0 0.18 0.20 0.20 99 1016.1
20260903054732 20 77 0.0 0.0 0.18 0.18 0.18 99 1016.0
20260903054227 20 80 0.0 0.0 0.30 0.18 0.18 99 1016.6
20260903053724 20 82 0.0 0.0 0.13 0.15 0.15 99 1016.6
20260903053224 20 68 0.0 0.0 0.00 0.13 0.13 99 1016.6
20260903052720 20 82 0.0 0.0 0.00 0.13 0.13 99 1017.0
20260903052215 20 119 0.0 0.0 0.18 0.13 0.13 99 1017.0
20260903051710 20 133 0.0 0.0 0.30 0.13 0.13 99 1017.2
20260903051206 20 132 0.0 0.0 0.43 0.10 0.10 99 1017.8
20260903050701 20 176 0.0 0.0 0.43 0.10 0.10 99 1017.9
20260903050200 21 196 0.0 0.0 0.13 0.05 0.05 98 1018.4
20260903045655 21 180 0.0 0.0 0.00 0.03 0.03 97 1018.3
20260903045152 21 196 0.0 0.0 0.00 0.03 0.03 98 1017.9
20260903044648 21 151 0.0 0.0 0.18 0.03 0.03 97 1017.6
20260903044143 21 104 0.0 0.0 0.18 0.03 0.03 96 1017.5
20260903043640 21 94 0.0 0.0 0.00 0.00 0.00 96 1017.7
20260903043139 21 98 0.0 0.0 0.00 0.00 0.00 96 1017.8
20260903042638 21 129 0.0 0.0 0.00 0.00 0.00 95 1017.9
20260903042133 21 93 0.0 0.0 0.00 0.00 0.00 92 1018.0
20260903041630 21 136 0.0 0.0 0.00 0.00 0.00 95 1017.8
20260903041126 21 128 0.0 0.0 0.00 0.00 0.00 93 1017.9
20260903040624 21 1 0.0 0.0 0.00 0.00 0.00 96 1017.6
20260903040121 21 1 0.0 0.0 0.00 0.00 0.00 96 1017.5
20260903035616 21 5 0.0 0.0 0.00 0.00 0.00 96 1017.7
20260903035112 21 102 0.0 0.0 0.00 0.00 0.00 96 1017.5
20260903034606 21 245 0.0 0.0 0.00 0.00 0.00 96 1017.7
20260903034101 21 57 0.0 0.0 0.00 0.00 0.00 96 1017.6
20260903033557 21 73 0.0 0.0 0.00 0.00 0.00 96 1017.4
20260903033052 21 307 0.0 0.0 0.00 0.00 0.00 95 1017.7
20260903032547 21 208 0.0 0.0 0.00 0.00 0.00 95 1017.5
20260903032042 21 33 0.0 0.0 0.00 0.00 0.00 95 1017.4
20260903031542 21 307 0.0 0.0 0.00 0.00 0.00 95 1017.4
20260903031037 21 275 0.0 0.0 0.00 0.00 0.00 95 1017.5
20260903030532 21 347 0.0 0.0 0.00 0.00 0.00 95 1017.5
20260903030029 21 337 0.0 0.0 0.00 0.00 0.00 95 1017.6
20260903025524 21 305 0.0 0.0 0.00 0.00 0.00 95 1017.5
20260903025020 21 278 0.0 0.0 0.00 0.00 0.00 95 1017.5
20260903024519 21 349 0.0 0.0 0.00 0.00 0.00 94 1017.4
20260903024013 21 324 0.0 0.0 0.00 0.00 0.00 94 1017.7
20260903023509 21 4 0.0 0.0 0.00 0.00 0.00 94 1017.7
20260903023004 21 45 0.0 0.0 0.00 0.00 0.00 94 1018.1
20260903022503 21 12 0.0 0.0 0.00 0.00 0.00 94 1018.2
20260903022001 21 273 0.0 0.0 0.00 0.00 0.00 94 1017.8
20260903021457 21 142 0.0 0.0 0.00 0.00 0.00 94 1017.7
20260903020952 21 309 0.0 0.0 0.00 0.00 0.00 94 1017.6
20260903020448 21 287 0.0 0.0 0.00 0.00 0.00 94 1017.6
20260903015942 21 50 0.0 0.0 0.00 0.00 0.00 93 1017.4
20260903015437 21 307 0.0 0.0 0.00 0.00 0.00 93 1017.6
20260903014933 21 286 0.0 0.0 0.00 0.00 0.00 93 1017.9
20260903014432 21 282 0.0 0.0 0.00 0.00 0.00 93 1018.0
20260903013927 21 300 0.0 0.0 0.00 0.00 0.00 92 1018.3
20260903013427 20 285 0.0 0.0 0.00 0.00 0.00 92 1018.3
20260903012926 20 266 0.0 0.0 0.00 0.00 0.00 92 1018.0
20260903012426 20 285 0.0 0.0 0.00 0.00 0.00 92 1018.2
20260903011925 20 253 0.0 0.0 0.00 0.00 0.00 92 1018.4
20260903011420 20 322 0.0 0.0 0.00 0.00 0.00 91 1018.2
20260903010915 20 278 0.0 0.0 0.00 0.00 0.00 91 1018.2
20260903010410 20 32 0.0 0.0 0.00 0.00 0.00 91 1018.3
20260903005908 20 254 0.0 0.0 0.00 0.00 0.00 91 1018.5
20260903005403 20 200 0.0 0.0 0.00 0.00 0.00 91 1018.6
20260903004900 20 279 0.0 0.0 0.00 0.00 0.00 91 1018.5
20260903004355 20 295 0.0 0.0 0.00 0.00 0.00 91 1018.9
20260903003850 20 280 0.0 0.0 0.00 0.00 0.00 91 1018.9
20260903003345 20 277 0.0 0.0 0.00 0.00 0.00 91 1018.7
20260903002844 20 269 0.0 0.0 0.00 0.00 0.00 90 1018.5
20260903002339 20 26 0.0 0.0 0.00 0.00 0.00 90 1018.5
20260903001833 20 138 0.0 0.0 0.00 0.00 0.00 90 1018.1
20260903001329 20 212 0.0 0.0 0.00 0.00 0.00 90 1018.3
20260903000829 20 219 0.0 0.0 0.00 0.00 0.00 90 1018.2
20260903000325 20 197 0.0 0.0 0.00 0.00 0.00 90 1018.1
20260902235821 20 264 0.0 0.0 0.00 0.00 0.00 90 1017.9
20260902235317 20 197 0.0 0.0 0.00 0.00 0.00 90 1018.0
20260902234811 20 290 0.0 0.0 0.00 0.00 0.00 90 1018.1
20260902234306 20 14 0.0 0.0 0.00 0.00 0.00 91 1017.9
20260902233805 20 24 0.0 0.0 0.00 0.00 0.00 91 1017.9
20260902233304 20 279 0.0 0.0 0.00 0.00 0.00 90 1018.1
20260902232803 20 8 0.0 0.0 0.00 0.00 0.00 91 1017.7
20260902232258 20 287 0.0 0.0 0.00 0.00 0.00 91 1017.8
20260902231757 20 292 0.0 0.0 0.00 0.00 0.00 90 1017.7
20260902231252 20 289 0.0 0.0 0.00 0.00 0.00 90 1018.0
20260902230747 20 271 0.0 0.0 0.00 0.00 0.00 90 1017.8
20260902230245 21 281 0.0 0.0 0.00 0.00 0.00 90 1017.7
20260902225735 21 315 0.0 0.0 0.00 0.00 0.00 90 1018.0
20260902225230 21 156 0.0 0.0 0.00 0.00 0.00 90 1017.9
20260902224729 21 285 0.0 0.0 0.00 0.00 0.00 90 1018.3
20260902224224 21 329 0.0 0.0 0.00 0.00 0.00 89 1018.3
20260902223721 21 54 0.0 0.0 0.00 0.00 0.00 89 1018.4
20260902223219 21 4 0.0 0.0 0.00 0.00 0.00 89 1018.5
20260902222718 21 276 0.0 0.0 0.00 0.00 0.00 89 1018.5
20260902222213 21 233 0.0 0.0 0.00 0.00 0.00 89 1018.4
20260902221708 21 255 0.0 0.0 0.00 0.00 0.00 89 1018.3
20260902221206 21 310 0.0 0.0 0.00 0.00 0.00 88 1018.6
20260902220702 21 267 0.0 0.0 0.00 0.00 0.00 89 1018.7
20260902220157 21 323 0.0 0.0 0.00 0.00 0.00 89 1019.0
20260902215653 21 184 0.0 0.0 0.00 0.00 0.00 89 1019.0
20260902215148 21 12 0.0 0.0 0.00 0.00 0.00 89 1019.0
20260902214643 21 296 0.0 0.0 0.00 0.00 0.00 89 1019.2
20260902214142 21 330 0.0 0.0 0.00 0.00 0.00 89 1019.1
20260902213638 21 306 0.0 0.0 0.00 0.00 0.00 89 1019.1
20260902213137 21 259 0.0 0.0 0.00 0.00 0.00 89 1018.9
20260902212632 21 307 0.0 0.0 0.00 0.00 0.00 89 1018.8
20260902212128 21 332 0.0 0.0 0.00 0.00 0.00 89 1018.8
20260902211625 21 310 0.0 0.0 0.00 0.00 0.00 89 1018.7
20260902211120 21 308 0.0 0.0 0.00 0.00 0.00 89 1018.6
20260902210619 20 325 0.0 0.0 0.00 0.00 0.00 88 1018.8
20260902210115 21 210 0.0 0.0 0.00 0.00 0.00 89 1018.8
20260902205613 21 316 0.0 0.0 0.00 0.00 0.00 89 1018.7
20260902205108 21 292 0.0 0.0 0.00 0.00 0.00 89 1018.5
20260902204603 21 306 0.0 0.0 0.00 0.00 0.00 90 1018.6
20260902204057 21 333 0.0 0.0 0.00 0.00 0.00 90 1018.7
20260902203553 21 265 0.0 0.0 0.00 0.00 0.00 91 1018.6
20260902203052 21 290 0.0 0.0 0.00 0.00 0.00 90 1019.1
20260902202548 21 79 0.0 0.0 0.00 0.00 0.00 90 1018.8
20260902202045 21 222 0.0 0.0 0.00 0.00 0.00 90 1019.0
20260902201540 21 274 0.0 0.0 0.00 0.00 0.00 90 1019.0
20260902201039 21 285 0.0 0.0 0.00 0.00 0.00 90 1019.0
20260902200534 21 290 0.0 0.0 0.00 0.00 0.00 90 1019.0
20260902200031 21 304 0.0 0.0 0.00 0.00 0.00 90 1019.0
20260902195526 21 275 0.0 0.0 0.00 0.00 0.00 90 1019.0
20260902195024 21 291 0.0 0.0 0.00 0.00 0.00 90 1019.0
20260902194519 21 320 0.0 0.0 0.00 0.00 0.00 90 1019.3
20260902194014 21 12 0.0 0.0 0.00 0.00 0.00 90 1019.3
20260902193510 21 70 0.0 0.0 0.00 0.00 0.00 90 1019.0
20260902193009 21 312 0.0 0.0 0.00 0.00 0.00 91 1019.2
20260902192507 21 295 0.0 0.0 0.00 0.00 0.00 91 1019.2
20260902192006 21 306 0.0 0.0 0.00 0.00 0.00 89 1019.1
20260902191502 21 260 0.0 0.0 0.00 0.00 0.00 89 1019.3
20260902190956 21 310 0.0 0.0 0.00 0.00 0.00 84 1019.4
20260902190453 21 316 0.0 0.0 0.00 0.00 0.00 84 1019.1
20260902185948 21 289 0.0 0.0 0.00 0.00 0.00 84 1019.0
20260902185444 21 318 0.0 0.0 0.00 0.00 0.00 84 1019.0
20260902184938 21 255 0.0 0.0 0.00 0.00 0.00 84 1018.9
20260902184434 21 274 0.0 0.0 0.00 0.00 0.00 84 1019.0
20260902183929 21 322 0.0 0.0 0.00 0.00 0.00 84 1019.1
20260902183425 21 259 0.0 0.0 0.00 0.00 0.00 83 1019.0
20260902182921 22 358 0.0 0.0 0.00 0.00 0.00 83 1019.0
20260902182417 22 348 0.0 0.0 0.00 0.00 0.00 83 1019.1
20260902181913 22 348 0.0 0.0 0.00 0.00 0.00 82 1019.4
20260902181409 22 290 0.0 0.0 0.00 0.00 0.00 82 1019.2
20260902180903 22 264 0.0 0.0 0.00 0.00 0.00 81 1019.2
20260902180358 22 294 0.0 0.0 0.00 0.00 0.00 81 1019.2
20260902175853 22 20 0.0 0.0 0.00 0.00 0.00 81 1019.3
20260902175348 22 355 0.0 0.0 0.00 0.00 0.00 81 1019.5
20260902174844 22 216 0.0 0.0 0.00 0.00 0.00 81 1019.4
20260902174341 22 301 0.0 0.0 0.00 0.00 0.00 80 1019.5
20260902173831 22 332 0.0 0.0 0.00 0.00 0.00 79 1019.5
20260902173330 22 299 0.0 0.0 0.00 0.00 0.00 80 1019.6
20260902172825 22 313 0.0 0.0 0.00 0.00 0.00 80 1019.5
20260902172324 22 335 0.0 0.0 0.00 0.00 0.00 79 1019.4
20260902171814 22 303 0.0 0.0 0.00 0.00 0.00 79 1019.3
20260902171309 22 286 0.0 0.0 0.00 0.00 0.00 80 1019.4
20260902170806 22 293 0.0 0.0 0.00 0.00 0.00 81 1019.5
20260902170300 22 271 0.0 0.0 0.00 0.00 0.00 81 1019.7
20260902165755 22 293 0.0 0.0 0.00 0.00 0.00 81 1019.9
20260902165249 22 250 0.0 0.0 0.00 0.00 0.00 80 1020.0
20260902164744 22 286 0.0 0.0 0.00 0.00 0.00 80 1019.9
20260902164238 22 14 0.0 0.0 0.00 0.00 0.00 80 1020.0
20260902163733 21 291 0.0 0.0 0.00 0.00 0.00 80 1019.8
20260902163228 21 284 0.0 0.0 0.00 0.00 0.00 81 1019.9
20260902162726 21 314 0.0 0.0 0.00 0.00 0.00 79 1019.6
20260902162221 21 291 0.0 0.0 0.00 0.00 0.00 80 1019.7
20260902161716 22 311 0.0 0.0 0.00 0.00 0.00 78 1019.9
20260902161211 21 325 0.0 0.0 0.00 0.00 0.00 80 1019.8
20260902160708 21 248 0.0 0.0 0.00 0.00 0.00 79 1019.8
20260902160203 21 318 0.0 0.0 0.00 0.00 0.00 79 1019.7
20260902155701 21 328 0.0 0.0 0.00 0.00 0.00 79 1020.0
20260902155159 21 316 0.0 0.0 0.00 0.00 0.00 80 1020.0
20260902154655 21 290 0.0 0.0 0.00 0.00 0.00 80 1020.0
20260902154154 21 263 0.0 0.0 0.00 0.00 0.00 79 1020.0
20260902153649 21 292 0.0 0.0 0.00 0.00 0.00 79 1019.9
20260902153144 21 303 0.0 0.0 0.00 0.00 0.00 80 1019.9
20260902152640 21 343 0.0 0.0 0.00 0.00 0.00 79 1020.1
20260902152135 21 60 0.0 0.0 0.00 0.00 0.00 79 1020.0
20260902151630 21 317 0.0 0.0 0.00 0.00 0.00 79 1020.0
20260902151125 21 245 0.0 0.0 0.00 0.00 0.00 79 1020.1
20260902150621 21 305 0.0 0.0 0.00 0.00 0.00 79 1019.8
20260902150115 21 228 0.0 0.0 0.00 0.00 0.00 79 1019.7
20260902145610 21 288 0.0 0.0 0.00 0.00 0.00 80 1019.8
20260902145109 21 224 0.0 0.0 0.00 0.00 0.00 81 1020.0
20260902144606 20 0 0.0 0.0 0.00 0.00 0.00 82 1020.0
20260902144101 20 278 0.0 0.0 0.00 0.00 0.00 84 1020.3
20260902143556 20 286 0.0 0.0 0.00 0.00 0.00 83 1020.4
20260902143051 20 328 0.0 0.0 0.00 0.00 0.00 83 1020.4
20260902142547 20 304 0.0 0.0 0.00 0.00 0.00 84 1020.3
20260902142042 20 125 0.0 0.0 0.00 0.00 0.00 86 1020.1
20260902141541 20 320 0.0 0.0 0.00 0.00 0.00 85 1020.3
20260902141037 20 187 0.0 0.0 0.00 0.00 0.00 85 1020.1
20260902140532 20 243 0.0 0.0 0.00 0.00 0.00 85 1020.1
20260902140028 20 277 0.0 0.0 0.00 0.00 0.00 84 1019.8
20260902135526 20 309 0.0 0.0 0.00 0.00 0.00 85 1019.9
20260902135022 20 212 0.0 0.0 0.00 0.00 0.00 85 1020.2
20260902134517 20 131 0.0 0.0 0.00 0.00 0.00 87 1020.0
20260902134012 20 299 0.0 0.0 0.00 0.00 0.00 86 1019.8
20260902133507 20 248 0.0 0.0 0.00 0.00 0.00 87 1019.5
20260902133007 20 293 0.0 0.0 0.00 0.00 0.00 88 1019.4
20260902132502 20 285 0.0 0.0 0.00 0.00 0.00 89 1019.3
20260902131956 19 300 0.0 0.0 0.00 0.00 0.00 89 1019.8
20260902131453 20 318 0.0 0.0 0.00 0.00 0.00 89 1019.7
20260902130953 19 325 0.0 0.0 0.00 0.00 0.00 90 1019.7
20260902130448 19 171 0.0 0.0 0.00 0.00 0.00 90 1019.7
20260902125943 19 233 0.0 0.0 0.00 0.00 0.00 90 1019.4
20260902125440 19 273 0.0 0.0 0.00 0.00 0.00 91 1019.5
20260902124935 19 335 0.0 0.0 0.00 0.00 0.00 91 1019.6
20260902124431 19 263 0.0 0.0 0.00 0.00 0.00 91 1019.4
20260902123926 19 295 0.0 0.0 0.00 0.00 0.00 92 1019.4
20260902123423 18 268 0.0 0.0 0.00 0.00 0.00 93 1019.3
20260902122920 18 244 0.0 0.0 0.00 0.00 0.00 93 1019.2
20260902122417 18 288 0.0 0.0 0.00 0.00 0.00 93 1019.1
20260902121912 18 259 0.0 0.0 0.00 0.00 0.00 94 1019.4
20260902121407 18 189 0.0 0.0 0.00 0.00 0.00 95 1019.4
20260902120902 18 256 0.0 0.0 0.00 0.00 0.00 95 1019.2
20260902120358 18 326 0.0 0.0 0.00 0.00 0.00 95 1019.2
20260902115858 18 237 0.0 0.0 0.00 0.00 0.00 96 1019.3
20260902115354 18 338 0.0 0.0 0.00 0.00 0.00 97 1019.2
20260902114850 18 234 0.0 0.0 0.00 0.00 0.00 97 1019.4
20260902114345 18 203 0.0 0.0 0.00 0.00 0.00 97 1019.2
20260902113840 18 247 0.0 0.0 0.00 0.00 0.00 97 1019.3
20260902113336 18 273 0.0 0.0 0.00 0.00 0.00 97 1019.1
20260902112835 18 305 0.0 0.0 0.00 0.00 0.00 98 1019.1